Regional Weather Roundup
Issued by NWS

Home | Current Version | Previous Version | Text Only | Print | Product List | Glossary On
Versions: 1 2 3 4 5 6 7 8 9 10 11 12 13 14 15 16 17 18 19 20 21 22 23 24 25 26 27 28
000
ASPQ40 PGUM 262012
RWRPQ
WEATHER ROUNDUP FOR THE MARIANAS AND MICRONESIA
NATIONAL WEATHER SERVICE TIYAN GU
600 AM CHST THU APR 27 2017

GUZ001>004-262100-
MARIANA ISLANDS-

CITY           SKY/WX    TMP DP  RH WIND       PRES   REMARKS
GUAM AIRPORT   NOT AVBL
ANDERSEN AFB   PTCLDY    77  75  94 SE9       29.87S
ROTA AIRPORT   MOCLDY    79  75  89 E9        29.87
TINIAN AP      PTCLDY    77  75  94 E8        29.85
SAIPAN AP      PTCLDY    75  73  94 E8        29.87S

$$

PMZ161-262100-
REPUBLIC OF PALAU-

CITY           SKY/WX    TMP DP  RH WIND       PRES   REMARKS
KOROR AP       PTCLDY    81  75  83 S6        29.76F
KOROR WSO      PTCLDY    82  75  78 S9        29.77F

$$

PMZ171>174-262100-
FEDERATED STATES OF MICRONESIA-

CITY           SKY/WX    TMP DP  RH WIND       PRES   REMARKS
YAP AIRPORT    NOT AVBL
CHUUK AP       CLOUDY    81  79  94 NE12      29.83R
POHNPEI AP     NOT AVBL
POHNPEI WSO    CLOUDY    81  75  83 NE7       29.86F
KOSRAE AP      NOT AVBL

$$

PMZ181-262100-
REPUBLIC OF THE MARSHALL ISLANDS-

CITY           SKY/WX    TMP DP  RH WIND       PRES   REMARKS
KWAJALEIN AP   MOSUNNY   82  73  74 NE16      29.88R
MAJURO AP      PTSUNNY   82  75  78 NE15      29.86
MAJURO WSO     PTSUNNY   82  77  83 E21       29.85R HX  91

$$





USA.gov is the U.S. government's official web portal to all federal, state and local government web resources and services.